SL-14 R/B (11267 NORAD) Tracking and Keplerian Element Data

This shows tracking and keplerian element data for the satellite.

Feedback or suggestion? Click here.




ElementValue
Catalog11267
NameSL-14 R/B
Epoch Orbit41152
Epoch Day12.81491872
Epoch Year2024
RAAN122.1158
Inclination82.5259
Eccentricity0.0017099
Argument of Perigee158.8646
Mean Anonmoly201.3283
Mean Motion14.90062593
Decay Rate1.199E-05
L11 11267U 79011B 24012.81491872 .00001199 00000+0 12126-3 0 9998
L22 11267 82.5259 122.1158 0017099 158.8646 201.3283 14.90062593411525



Live tracking and technical data element details for SL-14 R/B (NORAD 11267). SL-14 R/B can be tracked NOW for your location showing map with azimuth and elevation plus other details from your city location.







IsCatalogInMostPopularTable: catalog: 11267, numindb: 327
Update: records affected: 1



GetName: 11267 SL-14 R/B

Hit Count: updated at: Mon, 15 Apr 2024 00:33:01 GMT